Location: DARK SKY Beskydy - Park tmavé oblohy, www.darkskybeskydy.cz
(49.4926°N, 18.5016°E)
Time: 17:38:14
(UTC+02:00)

PCSat - Pass Details

Date: 12 August 2024
Orbit: 781 x 793 km, 67.1° (Epoch: 08 September)

Event Time Altitude Azimuth Distance (km) Brightness Sun altitude
Rises 21:43:04 0° 309° (NW) 3,296 14.8 -13.7°
Reaches altitude 10° 21:47:15 10° 340° (NNW) 2,368 13.1 -14.2°
Maximum altitude 21:49:19 12° 2° (N) 2,226 12.5 -14.4°
Drops below altitude 10° 21:51:23 10° 25° (NNE) 2,369 12.3 -14.7°
Sets 21:55:34 0° 56° (NE) 3,298 12.7 -15.1°
